FW5773 Weather Reports


time (UTC)temp
F
wind
direction
speed
knots
gust
knots
rain 1hr
in
rain 24hr
in
rain mn
in
humidity
%
barometer
mb
20260507183728 58 343 1.7 6.1 0.00 0.35 0.07 67 1012.5
20260507183255 58 352 1.7 6.1 0.00 0.35 0.07 67 1012.3
20260507182740 58 295 1.7 6.1 0.00 0.35 0.07 67 1012.2
20260507182240 59 264 0.9 7.0 0.00 0.35 0.07 67 1012.3
20260507181808 59 262 1.7 5.2 0.00 0.35 0.07 67 1012.3
20260507181226 59 322 2.6 5.2 0.00 0.35 0.07 66 1012.3
20260507180725 59 8 1.7 7.0 0.00 0.35 0.07 66 1012.3
20260507180243 59 283 3.5 7.0 0.00 0.35 0.07 65 1012.3
20260507175729 59 271 0.9 8.7 0.00 0.35 0.07 66 1012.3
20260507175228 59 246 3.5 7.8 0.00 0.35 0.07 65 1012.4
20260507174734 59 8 1.7 7.0 0.00 0.35 0.07 64 1012.4
20260507174234 60 300 2.6 7.0 0.00 0.35 0.07 64 1012.2
20260507173759 60 229 1.7 5.2 0.00 0.35 0.07 64 1012.2
20260507173238 60 300 1.7 9.6 0.00 0.35 0.07 63 1012.2
20260507172737 61 245 0.9 5.2 0.00 0.35 0.07 63 1012.2
20260507172243 61 295 1.7 5.2 0.00 0.35 0.07 61 1012.1
20260507171723 63 320 2.6 5.2 0.00 0.35 0.07 60 1012.1
20260507171222 64 264 1.7 3.5 0.00 0.35 0.07 60 1012.0
20260507170728 64 3 0.0 3.5 0.00 0.35 0.07 60 1012.0
20260507170237 64 44 0.9 7.0 0.00 0.35 0.07 60 1012.0
20260507165730 64 28 2.6 7.0 0.00 0.35 0.07 57 1011.9
20260507165230 64 22 0.0 6.1 0.00 0.35 0.07 58 1011.9
20260507164736 64 60 0.9 5.2 0.00 0.35 0.07 57 1011.9
20260507164236 64 239 1.7 5.2 0.00 0.35 0.07 58 1012.0
20260507163735 64 220 1.7 7.8 0.00 0.35 0.07 57 1011.9
20260507163242 64 264 0.9 7.8 0.00 0.35 0.07 58 1011.9
20260507162721 65 216 1.7 5.2 0.00 0.35 0.07 56 1012.0
20260507162240 64 355 0.0 7.0 0.00 0.35 0.07 58 1011.9
20260507161747 64 237 3.5 7.8 0.00 0.35 0.07 57 1012.0
20260507161223 64 148 2.6 7.0 0.00 0.35 0.07 59 1012.0
20260507160722 64 181 4.3 11.3 0.00 0.35 0.07 57 1011.9
20260507160300 65 221 6.1 11.3 0.00 0.35 0.07 56 1011.9
20260507155732 66 187 0.0 3.5 0.00 0.35 0.07 56 1011.9
20260507155300 65 190 0.9 7.0 0.00 0.35 0.07 57 1011.8
20260507154737 65 205 1.7 7.0 0.00 0.35 0.07 54 1011.9
20260507154237 65 191 0.9 8.7 0.00 0.35 0.07 59 1011.9
20260507153722 65 212 4.3 8.7 0.00 0.35 0.07 57 1011.8
20260507153221 66 203 0.9 6.1 0.00 0.35 0.07 58 1011.9
20260507152748 65 235 2.6 6.1 0.00 0.35 0.07 57 1011.8
20260507152234 66 200 0.9 5.2 0.00 0.35 0.07 57 1011.7
20260507151734 65 187 2.6 6.1 0.00 0.35 0.07 54 1011.7
20260507151233 65 211 2.6 6.1 0.00 0.35 0.07 57 1011.9
20260507150738 65 198 0.9 5.2 0.00 0.35 0.07 55 1012.0
20260507150250 64 37 1.7 7.0 0.00 0.35 0.07 56 1012.1
20260507145742 64 246 3.5 8.7 0.00 0.35 0.07 55 1012.1
20260507145243 64 307 3.5 8.7 0.00 0.35 0.07 59 1012.2
20260507144728 64 222 3.5 10.4 0.00 0.35 0.07 58 1012.0
20260507144232 63 44 3.5 11.3 0.00 0.35 0.07 58 1011.9
20260507143729 64 227 4.3 9.6 0.00 0.35 0.07 59 1012.0
20260507143229 64 239 6.1 11.3 0.00 0.35 0.07 60 1012.1
20260507142735 64 243 5.2 11.3 0.00 0.35 0.07 63 1012.1
20260507142234 64 53 0.0 8.7 0.00 0.35 0.07 62 1012.1
20260507141740 63 229 2.6 8.7 0.00 0.35 0.07 61 1012.1
20260507141239 62 238 2.6 7.8 0.00 0.35 0.07 61 1012.2
20260507140739 63 233 3.5 9.6 0.00 0.35 0.07 62 1012.2
20260507140237 63 247 6.1 10.4 0.00 0.35 0.07 60 1012.0
20260507135723 64 237 3.5 10.4 0.00 0.35 0.07 61 1012.1
20260507135221 64 231 4.3 6.1 0.00 0.35 0.07 56 1012.2
20260507134749 64 243 4.3 8.7 0.00 0.35 0.07 60 1012.2
20260507134246 63 206 3.5 9.6 0.00 0.35 0.07 61 1012.3
20260507133723 63 226 7.0 11.3 0.00 0.35 0.07 60 1012.3
20260507133227 64 235 6.1 11.3 0.00 0.35 0.07 58 1012.2
20260507132726 67 210 1.7 7.0 0.00 0.35 0.07 55 1012.2
20260507132226 67 192 1.7 5.2 0.00 0.35 0.07 57 1012.1
20260507131732 67 217 2.6 5.2 0.00 0.35 0.07 54 1012.2
20260507131253 66 205 1.7 4.3 0.00 0.35 0.07 55 1012.3
20260507130759 64 182 0.9 6.1 0.00 0.35 0.07 60 1012.2
20260507130256 64 252 3.5 6.1 0.00 0.35 0.07 59 1012.2
20260507125722 64 158 0.0 4.3 0.00 0.35 0.07 62 1012.2
20260507125309 64 201 0.9 7.0 0.00 0.35 0.07 60 1012.2
20260507124727 63 220 1.7 10.4 0.00 0.35 0.07 61 1012.4
20260507124226 63 231 5.2 10.4 0.00 0.35 0.07 61 1012.2
20260507123735 63 203 1.7 8.7 0.00 0.35 0.07 58 1012.2
20260507123230 64 236 4.3 8.7 0.00 0.35 0.07 57 1012.3
20260507122757 66 203 4.3 8.7 0.00 0.35 0.07 59 1012.3
20260507122236 66 193 1.7 5.2 0.00 0.35 0.07 57 1012.3
20260507121735 67 184 0.9 4.3 0.00 0.35 0.07 58 1012.3
20260507121241 66 143 2.6 4.3 0.00 0.35 0.07 57 1012.3
20260507120737 66 182 0.9 3.5 0.00 0.35 0.07 64 1012.3
20260507120250 64 186 1.7 3.5 0.00 0.59 0.07 59 1012.4
20260507115736 64 202 0.9 5.2 0.00 0.59 0.07 62 1012.4
20260507115236 63 161 1.7 6.1 0.00 0.59 0.07 63 1012.5
20260507114742 62 184 1.7 6.1 0.00 0.59 0.07 65 1012.5
20260507114239 61 198 1.7 5.2 0.00 0.59 0.07 65 1012.6
20260507113738 60 249 2.6 6.1 0.00 0.59 0.07 66 1012.5
20260507113245 60 193 3.5 6.1 0.00 0.59 0.07 69 1012.5
20260507112744 60 193 0.9 5.2 0.00 0.59 0.07 72 1012.7
20260507112229 59 191 3.5 5.2 0.00 0.59 0.07 70 1012.8
20260507111756 59 243 2.6 4.3 0.00 0.59 0.07 73 1012.7
20260507111234 58 210 1.7 3.5 0.00 0.59 0.07 74 1012.7
20260507110733 58 248 0.9 3.5 0.00 0.59 0.07 75 1012.8
20260507110247 57 215 0.9 3.5 0.00 1.26 0.07 75 1012.8
20260507105739 57 194 1.7 4.3 0.00 1.26 0.07 77 1012.8
20260507105259 57 249 0.9 4.3 0.00 1.26 0.07 76 1012.9
20260507104746 57 257 1.7 5.2 0.00 1.26 0.07 77 1012.9
20260507104224 58 235 2.6 5.2 0.00 1.26 0.07 76 1012.9
20260507103723 58 238 3.5 4.3 0.00 1.26 0.07 73 1012.9
20260507103230 59 229 1.7 4.3 0.00 1.26 0.07 72 1012.9
20260507102757 60 233 0.9 3.5 0.00 1.26 0.07 72 1012.9
20260507102236 60 276 0.9 4.3 0.00 1.26 0.07 72 1012.9
20260507101735 61 258 0.9 2.6 0.00 1.26 0.07 69 1012.9
20260507101242 61 181 0.0 2.6 0.00 1.26 0.07 70 1012.9
20260507100721 61 208 0.9 2.6 0.00 1.26 0.07 67 1013.0
20260507100259 62 176 0.9 3.5 0.00 1.77 0.07 68 1013.0
20260507095725 63 172 0.9 3.5 0.00 1.77 0.07 67 1013.0
20260507095224 63 175 0.9 2.6 0.00 1.77 0.07 70 1013.0
20260507094752 62 155 0.0 0.9 0.00 1.77 0.07 75 1013.0
20260507094230 61 186 0.0 0.0 0.00 1.77 0.07 74 1013.0
20260507093757 59 179 0.0 0.0 0.00 1.77 0.07 79 1013.0
20260507093235 57 193 0.0 0.0 0.00 1.77 0.07 81 1013.1
20260507092741 57 193 0.0 0.0 0.00 1.77 0.07 79 1013.1
20260507092240 57 194 0.0 0.0 0.00 1.77 0.07 78 1013.2
20260507091747 58 191 0.0 0.0 0.00 1.77 0.07 78 1013.2
20260507091246 58 176 0.0 0.0 0.00 1.77 0.07 78 1013.1
20260507090725 58 179 0.0 0.0 0.00 1.77 0.07 82 1013.1
20260507090305 57 158 0.0 0.0 0.00 1.81 0.07 79 1013.1
20260507085730 57 182 0.0 0.0 0.00 1.81 0.07 81 1013.1
20260507085255 57 173 0.0 0.0 0.00 1.81 0.07 82 1013.1
20260507084733 56 186 0.0 0.0 0.00 1.81 0.07 82 1013.1
20260507084301 55 188 0.0 0.0 0.00 1.81 0.07 81 1013.0
20260507083739 55 188 0.0 0.0 0.00 1.81 0.07 81 1013.0
20260507083238 55 184 0.0 0.0 0.00 1.81 0.07 81 1013.0
20260507082745 55 180 0.0 0.0 0.00 1.81 0.07 83 1013.1
20260507082244 55 188 0.0 0.0 0.00 1.81 0.07 84 1013.1
20260507081729 55 188 0.0 0.0 0.00 1.81 0.07 82 1013.0
20260507081227 55 188 0.0 0.0 0.00 1.81 0.07 83 1013.1
20260507080730 54 190 0.0 0.0 0.00 1.81 0.07 84 1013.1
20260507080241 54 192 0.0 0.0 0.00 1.81 0.07 86 1013.1
20260507075756 54 189 0.0 0.0 0.00 1.81 0.07 85 1013.1
20260507075300 54 188 0.0 0.0 0.00 1.81 0.07 87 1013.1
20260507074800 54 177 0.0 0.0 0.00 1.81 0.07 90 1013.1
20260507074242 53 181 0.0 0.0 0.00 1.81 0.07 91 1013.0
20260507073742 52 179 0.0 0.0 0.00 1.81 0.07 92 1012.9
20260507073246 51 179 0.0 0.0 0.00 1.81 0.07 91 1013.0
20260507072725 51 185 0.0 0.0 0.00 1.81 0.07 91 1013.0
20260507072231 51 186 0.0 0.0 0.00 1.81 0.07 91 1013.0
20260507071751 50 183 0.0 0.0 0.00 1.81 0.07 92 1012.9
20260507071258 50 184 0.0 0.0 0.00 1.81 0.07 91 1012.8
20260507070736 50 184 0.0 0.0 0.04 1.81 0.07 92 1012.8
20260507070253 50 183 0.0 0.0 0.04 1.81 0.07 93 1012.8
20260507065805 50 172 0.0 0.0 0.04 1.81 0.07 93 1012.8
20260507065223 50 172 0.0 0.0 0.04 1.81 0.07 93 1012.8
20260507064722 50 172 0.0 0.0 0.04 1.81 0.07 93 1012.8
20260507064222 50 172 0.0 0.0 0.04 1.81 0.07 95 1012.7
20260507063749 50 169 0.0 0.0 0.04 1.81 0.07 95 1012.7
20260507063228 49 169 0.0 0.0 0.04 1.81 0.07 95 1012.7
20260507062734 49 167 0.0 0.0 0.04 1.81 0.07 95 1012.6
20260507062234 49 167 0.0 0.0 0.08 1.81 0.07 95 1012.5
20260507061740 49 166 0.0 0.0 0.08 1.81 0.07 95 1012.5
20260507061239 49 166 0.0 0.0 0.08 1.81 0.07 95 1012.4
20260507060739 48 165 0.0 0.0 0.08 1.77 0.06 95 1012.4
20260507060238 48 165 0.0 0.0 0.08 1.77 0.06 95 1012.4
20260507055737 48 165 0.0 0.0 0.08 1.77 0.06 95 1012.5
20260507055240 48 165 0.0 0.0 0.08 1.77 0.06 95 1012.5
20260507054739 48 165 0.0 0.0 0.08 1.77 0.06 95 1012.4
20260507054238 48 165 0.0 0.0 0.08 1.77 0.06 95 1012.3
20260507053744 48 165 0.0 0.0 0.08 1.77 0.06 95 1012.3
20260507053223 48 165 0.0 0.0 0.08 1.77 0.06 95 1012.2
20260507052741 48 169 0.0 0.0 0.08 1.77 0.06 95 1012.2
20260507052247 48 181 0.0 0.0 0.04 1.73 0.06 95 1012.1
20260507051727 48 184 0.0 0.0 0.04 1.73 0.06 95 1012.0
20260507051230 48 184 0.0 0.0 0.04 1.73 0.06 95 1012.0
20260507050728 47 185 0.0 0.0 0.00 1.69 0.05 95 1011.9
20260507050305 47 185 0.0 0.0 0.00 1.69 0.05 95 1011.9
20260507045729 47 185 0.0 0.0 0.00 1.69 0.05 95 1011.8
20260507045253 47 186 0.0 0.0 0.00 1.69 0.05 95 1011.7
20260507044800 47 186 0.0 0.0 0.00 1.69 0.05 95 1011.7
20260507044238 47 186 0.0 0.0 0.00 1.69 0.05 95 1011.7
20260507043737 47 186 0.0 0.0 0.00 1.69 0.05 95 1011.6
20260507043244 47 186 0.0 0.0 0.00 1.69 0.05 95 1011.6
20260507042722 47 186 0.0 0.0 0.00 1.69 0.05 95 1011.6
20260507042247 47 186 0.0 0.0 0.00 1.69 0.05 95 1011.5
20260507041726 47 186 0.0 0.0 0.00 1.69 0.05 95 1011.5
20260507041221 47 186 0.0 0.0 0.00 1.69 0.05 95 1011.5
20260507040727 47 186 0.0 0.0 0.00 1.69 0.05 95 1011.4
20260507040237 46 186 0.0 0.0 0.00 1.69 0.05 95 1011.4
20260507035737 46 186 0.0 0.0 0.00 1.69 0.05 95 1011.4
20260507035237 46 186 0.0 0.0 0.00 1.69 0.05 95 1011.4
20260507034804 46 186 0.0 0.0 0.00 1.69 0.05 95 1011.4
20260507034222 46 186 0.0 0.0 0.00 1.69 0.05 95 1011.4
20260507033750 46 186 0.0 0.0 0.00 1.69 0.05 95 1011.4
20260507033249 46 186 0.0 0.0 0.00 1.69 0.05 95 1011.4
20260507032735 46 186 0.0 0.0 0.00 1.69 0.05 95 1011.3
20260507032234 46 186 0.0 0.0 0.00 1.69 0.05 95 1011.3
20260507031733 46 186 0.0 0.0 0.00 1.69 0.05 95 1011.3
20260507031240 47 186 0.0 0.0 0.00 1.69 0.05 95 1011.2
20260507030808 46 186 0.0 0.0 0.00 1.69 0.05 94 1011.3
20260507030236 47 186 0.0 0.0 0.00 1.69 0.05 94 1011.2
20260507025743 47 186 0.0 0.0 0.00 1.69 0.05 94 1011.1
20260507025228 47 186 0.0 0.0 0.00 1.69 0.05 94 1011.3
20260507024727 47 186 0.0 0.0 0.00 1.69 0.05 94 1011.3
20260507024235 47 186 0.0 0.0 0.00 1.69 0.05 94 1011.2
20260507023733 47 186 0.0 0.0 0.00 1.69 0.05 94 1011.2
20260507023233 47 186 0.0 0.0 0.00 1.69 0.05 94 1011.2
20260507022759 47 186 0.0 0.0 0.00 1.69 0.05 94 1011.1
20260507022306 47 187 0.0 0.0 0.00 1.69 0.05 94 1011.1
20260507021744 47 184 0.0 0.0 0.00 1.69 0.05 94 1011.1
20260507021222 47 184 0.0 0.0 0.00 1.69 0.05 94 1011.1
20260507020729 47 184 0.0 0.0 0.00 1.69 0.05 94 1011.1
20260507020238 47 184 0.0 0.0 0.00 1.69 0.05 95 1011.1
20260507015753 47 184 0.0 0.0 0.00 1.69 0.05 94 1011.0
20260507015231 47 191 0.0 0.0 0.04 1.69 0.05 94 1010.9
20260507014737 47 191 0.0 0.0 0.04 1.69 0.05 94 1011.0
20260507014237 47 191 0.0 0.0 0.04 1.69 0.05 94 1010.8
20260507013743 47 191 0.0 0.0 0.04 1.69 0.05 94 1010.8
20260507013223 47 191 0.0 0.0 0.04 1.69 0.05 94 1010.9
20260507012722 47 185 0.0 0.0 0.04 1.69 0.05 94 1010.9
20260507012247 47 186 0.0 0.0 0.04 1.69 0.05 94 1010.9
20260507011725 47 186 0.0 0.0 0.04 1.69 0.05 94 1011.0
20260507011224 47 186 0.0 0.0 0.04 1.69 0.05 94 1011.0
20260507010723 47 185 0.0 0.0 0.08 1.69 0.05 94 1011.1
20260507010241 47 185 0.0 0.0 0.08 1.69 0.05 94 1011.1
20260507005727 47 185 0.0 0.0 0.08 1.69 0.05 94 1011.0
20260507005233 47 185 0.0 0.0 0.04 1.65 0.04 94 1011.1
20260507004732 47 185 0.0 0.0 0.04 1.65 0.04 93 1011.0
20260507004236 47 185 0.0 0.0 0.08 1.65 0.04 93 1011.0
20260507003735 47 185 0.0 0.0 0.08 1.65 0.04 93 1011.0
20260507003301 47 186 0.0 0.0 0.12 1.65 0.04 93 1011.0
20260507002746 47 185 0.0 0.0 0.12 1.65 0.04 93 1010.9
20260507002246 47 185 0.0 0.0 0.12 1.65 0.04 93 1011.0
20260507001752 47 185 0.0 0.0 0.16 1.65 0.04 93 1010.9
20260507001231 47 185 0.0 0.0 0.16 1.65 0.04 93 1010.9
20260507000727 47 185 0.0 0.0 0.12 1.61 0.03 93 1010.9
20260507000245 47 185 0.0 0.0 0.12 1.61 0.03 93 1011.0
20260506235731 47 185 0.0 0.0 0.12 1.61 0.03 92 1010.9
20260506235237 47 185 0.0 0.0 0.16 1.61 0.03 92 1011.0
20260506234737 47 185 0.0 0.0 0.12 1.57 0.02 92 1010.9
20260506234236 47 185 0.0 0.0 0.12 1.57 0.02 92 1011.0
20260506233743 47 185 0.0 0.0 0.12 1.57 0.02 92 1011.0
20260506233222 47 185 0.0 0.0 0.08 1.54 0.02 92 1011.0
20260506232729 47 185 0.0 0.0 0.08 1.54 0.02 92 1011.0
20260506232224 47 185 0.0 0.0 0.08 1.54 0.02 92 1011.0
20260506231730 47 185 0.0 0.0 0.04 1.50 0.01 92 1011.0
20260506231225 47 185 0.0 0.0 0.04 1.50 0.01 92 1010.8
20260506230731 47 185 0.0 0.0 0.04 1.50 0.01 92 1010.9
20260506230242 47 185 0.0 0.0 0.04 1.50 0.01 92 1010.9
20260506225735 47 275 0.0 0.0 0.04 1.50 0.01 92 1010.8
20260506225234 47 275 0.0 0.0 0.00 1.46 0.00 91 1010.8
20260506224732 47 275 0.0 0.0 0.00 1.46 0.00 91 1010.8
20260506224300 47 275 0.0 0.0 0.00 1.46 0.00 91 1010.8
20260506223738 47 275 0.0 0.0 0.00 1.46 0.00 91 1010.8
20260506223245 47 275 0.0 0.0 0.00 1.46 0.00 90 1010.7
20260506222724 47 275 0.0 0.0 0.00 1.46 0.00 90 1010.8
20260506222222 47 275 0.0 0.0 0.00 1.46 0.00 91 1010.7
20260506221749 47 281 0.0 0.0 0.00 1.46 0.00 91 1010.7
20260506221255 47 281 0.0 0.0 0.00 1.46 0.00 90 1010.7
20260506220732 47 276 0.0 0.0 0.00 1.46 0.00 90 1010.8
20260506220311 47 276 0.0 0.0 0.00 1.46 0.29 90 1010.7
20260506215741 47 276 0.0 0.0 0.00 1.46 0.29 89 1010.6
20260506215240 47 276 0.0 0.0 0.00 1.46 0.29 89 1010.6
20260506214740 47 276 0.0 0.0 0.00 1.46 0.29 89 1010.6
20260506214246 47 276 0.0 0.0 0.00 1.46 0.29 89 1010.5
20260506213725 47 276 0.0 0.0 0.00 1.46 0.29 89 1010.5
20260506213221 47 276 0.0 0.0 0.00 1.46 0.29 88 1010.5
20260506212747 47 276 0.0 0.0 0.00 1.46 0.29 88 1010.5
20260506212227 47 276 0.0 0.0 0.00 1.46 0.29 87 1010.4
20260506211726 47 276 0.0 0.0 0.00 1.46 0.29 86 1010.5
20260506211234 48 4 0.0 0.0 0.00 1.46 0.29 86 1010.5
20260506210731 48 4 0.0 0.0 0.00 1.46 0.29 86 1010.4
20260506210308 48 4 0.0 1.7 0.00 1.46 0.29 86 1010.3
20260506205741 48 344 0.0 2.6 0.00 1.46 0.29 85 1010.2
20260506205238 49 39 0.9 2.6 0.00 1.46 0.29 83 1010.1
20260506204744 50 213 0.0 0.9 0.00 1.46 0.29 80 1009.9
20260506204244 50 191 0.0 0.9 0.00 1.46 0.29 80 1009.9
20260506203722 50 269 0.0 6.1 0.00 1.46 0.29 80 1009.8
20260506203227 51 214 0.9 8.7 0.00 1.46 0.29 79 1009.8
20260506202748 51 223 4.3 8.7 0.00 1.46 0.29 78 1009.6
20260506202234 51 336 2.6 6.1 0.00 1.46 0.29 79 1009.5
20260506201730 51 274 2.6 7.8 0.00 1.46 0.29 79 1009.6
20260506201236 51 273 3.5 9.6 0.00 1.46 0.29 79 1009.6
20260506200734 50 273 3.5 9.6 0.00 1.46 0.29 80 1009.4
20260506200245 50 250 2.6 3.5 0.00 1.46 0.29 81 1009.4
20260506195738 50 264 0.9 3.5 0.00 1.46 0.29 82 1009.3
20260506195238 50 260 1.7 3.5 0.00 1.46 0.29 82 1009.2
20260506194723 50 264 0.9 2.6 0.00 1.46 0.29 82 1009.2
20260506194243 50 240 0.9 2.6 0.00 1.46 0.29 82 1009.2
20260506193729 49 255 0.9 2.6 0.00 1.46 0.29 83 1009.2
20260506193228 49 235 0.9 2.6 0.00 1.46 0.29 82 1009.2
20260506192728 49 257 0.9 2.6 0.00 1.46 0.29 82 1009.1
20260506192234 49 257 0.0 2.6 0.00 1.46 0.29 84 1009.1
20260506191754 50 221 0.9 2.6 0.00 1.46 0.29 81 1009.1
20260506191239 50 264 1.7 2.6 0.00 1.46 0.29 81 1009.0
20260506190738 50 261 0.9 1.7 0.00 1.46 0.29 82 1009.0
20260506190256 50 243 0.0 0.9 0.00 1.46 0.29 83 1009.0
20260506185742 51 243 0.0 0.9 0.00 1.46 0.29 81 1009.0
20260506185247 51 243 0.0 2.6 0.00 1.46 0.29 81 1008.8
20260506184727 51 263 1.7 3.5 0.00 1.46 0.29 82 1008.8
20260506184226 51 259 1.7 3.5 0.00 1.46 0.29 81 1008.8